QPF
0.00 0.00 0.00 0.00 0.00 0.00 0.00 0.00 0.00 0.00 0.00 0.00 0.00 0.00 0.00 0.00 0.00 0.00 0.00 0.00 0.00 0.00 0.00 0.00 0.00 0.00 0.00 0.00 0.00 0.00 0.00 0.00 0.00 0.00 0.00 0.00 0.00 0.00 0.00 0.00 0.00 0.00 0.00 0.00 0.00 0.00 0.00
0.00 0.00 0.00 0.00 0.00 0.00 0.00 0.00 0.00 0.00 0.00 0.00 0.00 0.00 0.00 0.00 0.00 0.00 0.00 0.00 0.00 0.00 0.00 0.00 0.00 0.00 0.00 0.00 0.00 0.00 0.00 0.00 0.00 0.00 0.00 0.00 0.00 0.00 0.00 0.00 0.00 0.00 0.00 0.00 0.00 0.00 0.00
0.00 0.00 0.00 0.00 0.00 0.00 0.00 0.00 0.00 0.00 0.00 0.00 0.00 0.00 0.00 0.00 0.00 0.00 0.00 0.00 0.00 0.00 0.00 0.00 0.00 0.00 0.00 0.00 0.00 0.00 0.00 0.00 0.00 0.00 0.00 0.00 0.00 0.00 0.00 0.00 0.00 0.00 0.00 0.00 0.00 0.00 0.00
0.00 0.00 0.00 0.00 0.00 0.00 0.00 0.00 0.00 0.00 0.00 0.00 0.00 0.00 0.00 0.00 0.00 0.00 0.00 0.00 0.00 0.00 0.00 0.00 0.00 0.00 0.00 0.00 0.00 0.00 0.00 0.00 0.00 0.00 0.00 0.00 0.00 0.00 0.00 0.00 0.00 0.00 0.00 0.00 0.00 0.00 0.00
0.00 0.00 0.00 0.00 0.00 0.00 0.00 0.00 0.00 0.00 0.00 0.00 0.00 0.00 0.00 0.00 0.00 0.00 0.00 0.00 0.00 0.00 0.00 0.00 0.00 0.00 0.00 0.00 0.00 0.00 0.00 0.00 0.00 0.00 0.00 0.00 0.00 0.00 0.00 0.00 0.00 0.00 0.00 0.00 0.00 0.00 0.00
0.00 0.00 0.00 0.00 0.00 0.00 0.00 0.00 0.00 0.00 0.00 0.00 0.00 0.00 0.00 0.00 0.00 0.00 0.00 0.00 0.00 0.00 0.00 0.00 0.00 0.00 0.00 0.00 0.00 0.00 0.00 0.00 0.00 0.00 0.00 0.00 0.00 0.00 0.00 0.00 0.00 0.00 0.00 0.00 0.00 0.00 0.00
0.00 0.00 0.00 0.00 0.00 0.00 0.00 0.00 0.00 0.00 0.00 0.00 0.00 0.00 0.00 0.00 0.00 0.00 0.00 0.00 0.00 0.00 0.00 0.00 0.00 0.00 0.00 0.00 0.00 0.00 0.00 0.00 0.00 0.00 0.00 0.00 0.00 0.00 0.00 0.00 0.00 0.00 0.00 0.00 0.00 0.00 0.00
0.00 0.00 0.00 0.00 0.00 0.00 0.00 0.00 0.00 0.00 0.00 0.00 0.00 0.00 0.00 0.00 0.00 0.00 0.00 0.00 0.00 0.00 0.00 0.00 0.00 0.00 0.00 0.00 0.00 0.00 0.00 0.00 0.00 0.00 0.00 0.00 0.00 0.00 0.00 0.00 0.00 0.00 0.00 0.00 0.00 0.00 0.00
0.00 0.00 0.00 0.00 0.00 0.00 0.00 0.00 0.00 0.00 0.00 0.00 0.00 0.00 0.00 0.00 0.00 0.00 0.00 0.00 0.00 0.00 0.00 0.00 0.00 0.00 0.00 0.00 0.00 0.00 0.00 0.00 0.00 0.00 0.00 0.00 0.00 0.00 0.00 0.00 0.00 0.00 0.00 0.00 0.00 0.00 0.00
0.00 0.00 0.00 0.00 0.00 0.00 0.00 0.00 0.00 0.00 0.00 0.00 0.00 0.00 0.00 0.00 0.00 0.00 0.00 0.00 0.00 0.00 0.00 0.00 0.00 0.00 0.00 0.00 0.00 0.00 0.00 0.00 0.00 0.00 0.00 0.00 0.00 0.00 0.00 0.00 0.00 0.00 0.00 0.00 0.00 0.00 0.00
0.00 0.00 0.00 0.00 0.00 0.00 0.00 0.00 0.00 0.00 0.00 0.00 0.00 0.00 0.00 0.00 0.00 0.00 0.00 0.00 0.00 0.00 0.00 0.00 0.00 0.00 0.00 0.00 0.00 0.00 0.00 0.00 0.00 0.00 0.00 0.00 0.00 0.00 0.00 0.00 0.00 0.00 0.00 0.00 0.00 0.00 0.00
0.00 0.00 0.00 0.00 0.00 0.00 0.00 0.00 0.00 0.00 0.00 0.00 0.00 0.00 0.00 0.00 0.00 0.00 0.00 0.00 0.00 0.00 0.00 0.00 0.00 0.00 0.00 0.00 0.00 0.00 0.00 0.00 0.00 0.00 0.00 0.00 0.00 0.00 0.00 0.00 0.00 0.00 0.00 0.00 0.00 0.00 0.00
0.00 0.00 0.00 0.00 0.00 0.00 0.00 0.00 0.00 0.00 0.00 0.00 0.00 0.00 0.00 0.00 0.00 0.00 0.00 0.00 0.00 0.00 0.00 0.00 0.00 0.00 0.00 0.00 0.00 0.00 0.00 0.00 0.00 0.00 0.00 0.00 0.00 0.00 0.00 0.00 0.00 0.00 0.00 0.00 0.00 0.00 0.00
0.00 0.00 0.00 0.00 0.00 0.00 0.00 0.00 0.00 0.00 0.00 0.00 0.00 0.00 0.00 0.00 0.00 0.00 0.00 0.00 0.00 0.00 0.00 0.00 0.00 0.00 0.00 0.00 0.00 0.00 0.00 0.00 0.00 0.00 0.00 0.00 0.00 0.00 0.00 0.00 0.00 0.00 0.00 0.00 0.00 0.00 0.00
0.00 0.00 0.00 0.00 0.00 0.00 0.00 0.00 0.00 0.00 0.00 0.00 0.00 0.00 0.00 0.00 0.00 0.00 0.00 0.00 0.00 0.00 0.00 0.00 0.00 0.00 0.00 0.00 0.00 0.00 0.00 0.00 0.00 0.00 0.00 0.00 0.00 0.00 0.00 0.00 0.00 0.00 0.00 0.00 0.00 0.00 0.00
0.00 0.00 0.00 0.00 0.00 0.00 0.00 0.00 0.00 0.00 0.00 0.00 0.00 0.00 0.00 0.00 0.00 0.00 0.00 0.00 0.00 0.00 0.00 0.00 0.00 0.00 0.00 0.00 0.00 0.00 0.00 0.00 0.00 0.00 0.00 0.00 0.00 0.00 0.00 0.00 0.00 0.00 0.00 0.00 0.00 0.00 0.00
0.00 0.00 0.00 0.00 0.00 0.00 0.00 0.00 0.00 0.00 0.00 0.00 0.00 0.00 0.00 0.00 0.00 0.00 0.00 0.00 0.00 0.00 0.00 0.00 0.00 0.00 0.00 0.00 0.00 0.00 0.00 0.00 0.00 0.00 0.00 0.00 0.00 0.00 0.00 0.00 0.00 0.00 0.00 0.00 0.00 0.00 0.00
0.00 0.00 0.00 0.00 0.00 0.00 0.00 0.00 0.00 0.00 0.00 0.00 0.00 0.00 0.00 0.00 0.00 0.00 0.00 0.00 0.00 0.00 0.00 0.00 0.00 0.00 0.00 0.00 0.00 0.00 0.00 0.00 0.00 0.00 0.00 0.00 0.00 0.00 0.00 0.00 0.00 0.00 0.00 0.00 0.00 0.01 0.01
0.00 0.00 0.00 0.00 0.00 0.00 0.00 0.00 0.00 0.00 0.00 0.00 0.00 0.00 0.00 0.00 0.00 0.00 0.00 0.00 0.00 0.00 0.00 0.00 0.00 0.00 0.00 0.00 0.00 0.00 0.00 0.00 0.00 0.00 0.00 0.00 0.00 0.00 0.00 0.00 0.00 0.00 0.00 0.00 0.00 0.02 0.03
0.00 0.00 0.00 0.00 0.00 0.00 0.00 0.00 0.00 0.00 0.00 0.00 0.00 0.00 0.00 0.00 0.00 0.00 0.00 0.00 0.00 0.00 0.00 0.00 0.00 0.00 0.00 0.00 0.00 0.00 0.00 0.00 0.00 0.00 0.00 0.00 0.00 0.00 0.00 0.00 0.00 0.00 0.00 0.00 0.00 0.05 0.06
0.00 0.00 0.00 0.00 0.00 0.00 0.00 0.00 0.00 0.00 0.00 0.00 0.00 0.00 0.00 0.00 0.00 0.00 0.00 0.00 0.00 0.00 0.00 0.00 0.00 0.00 0.00 0.00 0.00 0.00 0.00 0.00 0.00 0.00 0.00 0.00 0.00 0.00 0.00 0.00 0.00 0.00 0.06 0.05 0.02 0.00 0.02
0.00 0.00 0.00 0.00 0.00 0.00 0.00 0.00 0.00 0.00 0.00 0.00 0.00 0.00 0.00 0.00 0.00 0.00 0.00 0.00 0.00 0.00 0.00 0.00 0.00 0.00 0.00 0.00 0.00 0.00 0.00 0.00 0.00 0.00 0.00 0.00 0.00 0.00 0.00 0.00 0.01 0.21 0.20 0.17 0.06 0.01 0.10
0.00 0.00 0.00 0.00 0.00 0.00 0.00 0.00 0.00 0.00 0.00 0.00 0.00 0.00 0.00 0.00 0.00 0.00 0.00 0.00 0.00 0.00 0.00 0.00 0.00 0.00 0.00 0.00 0.00 0.00 0.00 0.00 0.00 0.00 0.00 0.00 0.00 0.00 0.00 0.00 0.10 0.18 0.06 0.05 0.05 0.00 0.00
0.00 0.00 0.00 0.00 0.00 0.00 0.00 0.00 0.00 0.00 0.00 0.00 0.00 0.00 0.00 0.00 0.00 0.00 0.00 0.00 0.00 0.00 0.00 0.00 0.00 0.00 0.00 0.00 0.00 0.00 0.00 0.00 0.00 0.00 0.00 0.00 0.00 0.00 0.00 0.02 0.12 0.09 0.03 0.02 0.04 0.00 0.00
0.00 0.00 0.00 0.00 0.00 0.00 0.00 0.00 0.00 0.00 0.00 0.00 0.00 0.00 0.00 0.00 0.00 0.00 0.00 0.00 0.00 0.00 0.00 0.00 0.00 0.00 0.00 0.00 0.00 0.00 0.00 0.00 0.00 0.00 0.00 0.00 0.00 0.00 0.00 0.04 0.11 0.05 0.00 0.00 0.01 0.01 0.00
0.00 0.00 0.00 0.00 0.00 0.00 0.00 0.00 0.00 0.00 0.00 0.00 0.00 0.00 0.00 0.00 0.00 0.00 0.00 0.00 0.00 0.00 0.00 0.00 0.00 0.00 0.00 0.00 0.00 0.00 0.00 0.00 0.00 0.00 0.00 0.00 0.00 0.00 0.00 0.01 0.05 0.06 0.01 0.00 0.01 0.01 0.00
0.00 0.00 0.00 0.00 0.00 0.00 0.00 0.00 0.00 0.00 0.00 0.00 0.00 0.00 0.00 0.00 0.00 0.00 0.00 0.00 0.00 0.00 0.00 0.00 0.00 0.00 0.00 0.00 0.00 0.00 0.00 0.00 0.00 0.00 0.00 0.00 0.00 0.00 0.01 0.02 0.04 0.06 0.08 0.00 0.02 0.02 0.00
0.00 0.00 0.00 0.00 0.00 0.00 0.00 0.00 0.00 0.00 0.00 0.00 0.00 0.00 0.00 0.00 0.00 0.00 0.00 0.00 0.00 0.00 0.00 0.00 0.00 0.00 0.00 0.00 0.00 0.00 0.00 0.00 0.00 0.00 0.00 0.01 0.00 0.00 0.00 0.01 0.03 0.01 0.01 0.00 0.01 0.00 0.00
0.00 0.00 0.00 0.00 0.00 0.00 0.00 0.00 0.00 0.00 0.00 0.00 0.00 0.00 0.00 0.00 0.00 0.00 0.00 0.00 0.00 0.00 0.00 0.00 0.00 0.00 0.00 0.00 0.00 0.00 0.00 0.00 0.00 0.00 0.00 0.00 0.00 0.00 0.00 0.00 0.00 0.00 0.00 0.00 0.00 0.00 0.00
MSLP
1020.60 1020.81 1020.62 1020.55 1020.44 1020.10 1019.82 1019.43 1019.13 1018.80 1018.32 1017.97 1017.43 1016.85 1016.24 1015.62 1015.17 1014.76 1014.29 1013.73 1013.22 1012.74 1012.34 1012.37 1012.21 1012.01 1011.61 1011.07 1009.94 1008.58 1008.41 1007.95 1007.74 1008.08 1008.11 1008.16 1008.31 1008.54 1008.62 1008.55 1008.43 1008.34 1007.99 1007.73 1007.25 1007.06 1006.80
1020.43 1020.77 1020.66 1020.42 1020.42 1020.20 1019.83 1019.46 1019.07 1018.57 1018.36 1017.79 1017.23 1016.76 1016.05 1015.46 1014.88 1014.47 1014.03 1013.42 1012.84 1012.40 1012.14 1012.03 1011.97 1011.97 1011.46 1010.55 1009.15 1008.87 1008.68 1008.10 1007.98 1007.86 1007.80 1007.89 1007.79 1007.88 1008.22 1008.34 1008.56 1007.98 1007.96 1007.88 1007.70 1007.36 1007.13
1020.53 1020.33 1020.79 1020.32 1020.32 1020.24 1019.91 1019.47 1018.87 1018.52 1018.18 1017.78 1016.93 1016.57 1015.90 1015.35 1014.65 1013.99 1013.57 1013.02 1012.48 1011.96 1011.86 1011.60 1011.79 1011.64 1010.94 1009.92 1008.99 1008.58 1008.34 1008.19 1007.72 1007.65 1007.68 1007.36 1007.35 1007.73 1008.11 1008.27 1008.16 1008.01 1008.28 1008.00 1008.28 1007.93 1008.06
1020.68 1020.23 1020.55 1020.57 1020.11 1020.26 1019.81 1019.39 1018.85 1018.54 1017.97 1017.59 1016.83 1016.38 1015.68 1015.11 1014.51 1013.67 1012.97 1012.40 1012.01 1011.50 1011.40 1011.49 1011.26 1011.41 1010.44 1009.17 1008.80 1008.53 1007.98 1007.69 1007.32 1007.19 1007.23 1007.05 1007.25 1007.73 1008.21 1008.31 1008.38 1008.61 1008.90 1009.23 1009.14 1008.71 1008.62
1020.59 1020.34 1020.55 1020.56 1020.18 1020.05 1019.59 1019.29 1019.07 1018.29 1017.87 1017.44 1016.75 1016.23 1015.64 1014.78 1014.22 1013.44 1012.48 1011.82 1011.49 1011.11 1011.09 1011.43 1011.29 1010.96 1010.61 1009.29 1008.96 1008.77 1008.41 1008.09 1007.35 1006.94 1006.90 1006.92 1007.27 1008.36 1008.73 1009.28 1009.79 1010.01 1010.34 1010.12 1009.82 1009.54 1009.42
1020.55 1020.40 1020.63 1020.51 1020.13 1019.75 1019.54 1019.34 1018.86 1018.35 1017.77 1017.23 1016.48 1016.07 1015.54 1014.60 1013.87 1012.99 1012.19 1011.67 1011.14 1011.05 1010.87 1011.03 1011.08 1011.27 1010.62 1010.27 1009.70 1009.32 1008.23 1007.83 1007.75 1007.44 1007.51 1007.79 1008.70 1009.39 1010.08 1010.50 1011.16 1011.18 1011.07 1010.99 1010.89 1010.61 1010.70
1020.78 1020.56 1020.44 1020.63 1019.97 1019.74 1019.29 1019.16 1018.92 1018.23 1017.72 1016.92 1016.34 1015.93 1015.33 1014.57 1013.92 1013.05 1012.15 1011.72 1012.39 1012.29 1011.93 1012.14 1012.27 1012.01 1011.32 1010.54 1010.04 1009.76 1008.82 1008.36 1008.25 1008.56 1009.23 1009.36 1009.95 1010.61 1011.01 1011.02 1011.17 1011.38 1011.63 1011.66 1011.21 1010.89 1011.33
1020.79 1020.59 1020.26 1020.74 1020.13 1019.53 1019.25 1019.03 1018.58 1018.23 1017.63 1016.72 1016.16 1015.70 1015.15 1014.55 1014.07 1013.45 1013.38 1014.16 1014.57 1014.63 1013.58 1012.55 1012.23 1011.73 1011.15 1011.00 1010.82 1010.30 1009.99 1009.86 1010.17 1010.49 1010.26 1010.71 1010.79 1010.83 1010.94 1011.17 1011.46 1011.70 1012.09 1012.18 1011.74 1011.20 1011.50
1020.87 1020.62 1020.24 1020.80 1019.97 1019.43 1019.36 1019.02 1018.36 1017.77 1017.55 1016.82 1016.14 1015.43 1014.89 1014.26 1014.01 1013.87 1014.54 1015.13 1014.86 1014.54 1014.15 1013.28 1012.61 1011.91 1011.57 1011.38 1012.10 1012.37 1011.98 1011.61 1011.51 1011.64 1011.67 1011.59 1011.63 1011.37 1011.30 1011.74 1012.07 1012.22 1012.54 1012.56 1012.50 1011.88 1011.69
1020.69 1020.18 1020.97 1020.32 1019.79 1019.62 1019.31 1018.96 1018.25 1017.59 1017.41 1016.91 1015.89 1015.23 1014.77 1013.94 1014.26 1014.89 1015.08 1015.07 1014.78 1014.57 1014.86 1014.84 1013.23 1012.27 1011.93 1011.79 1012.73 1013.08 1012.77 1012.81 1012.53 1012.83 1012.56 1012.79 1012.66 1012.31 1012.37 1012.62 1012.74 1012.61 1012.62 1012.64 1012.47 1012.59 1013.04
1020.45 1020.17 1020.82 1020.04 1019.73 1019.58 1019.30 1018.72 1018.31 1017.57 1017.14 1016.74 1015.79 1015.14 1014.68 1014.56 1014.91 1015.10 1015.24 1014.93 1014.71 1014.63 1016.13 1015.76 1014.19 1013.02 1013.37 1013.74 1014.76 1014.23 1013.85 1013.40 1014.40 1014.30 1013.96 1014.67 1014.16 1013.85 1013.61 1013.85 1013.39 1013.31 1012.87 1012.86 1013.04 1013.41 1013.83
1020.65 1020.46 1020.21 1019.90 1019.84 1019.55 1018.98 1018.80 1017.98 1017.69 1017.09 1016.33 1015.39 1015.13 1015.03 1015.05 1015.15 1015.21 1015.01 1014.97 1015.08 1016.12 1017.62 1016.51 1015.42 1014.89 1014.99 1015.45 1015.77 1015.82 1015.63 1014.72 1015.45 1015.55 1015.65 1015.98 1015.24 1015.24 1015.06 1014.23 1013.96 1013.70 1013.51 1013.63 1014.19 1014.80 1015.70
1020.84 1020.17 1019.82 1020.05 1019.85 1019.23 1018.93 1018.48 1018.03 1017.76 1016.90 1015.87 1015.44 1015.27 1015.14 1015.25 1015.36 1015.10 1015.14 1015.71 1017.01 1017.92 1018.65 1018.16 1017.22 1016.63 1016.81 1017.25 1017.36 1017.59 1018.01 1017.83 1019.04 1018.37 1018.64 1017.91 1016.96 1016.42 1015.84 1015.15 1014.60 1014.89 1015.23 1016.19 1016.58 1017.00 1017.75
1020.35 1019.89 1020.05 1020.00 1019.70 1018.98 1018.81 1018.40 1018.23 1017.41 1016.54 1015.75 1015.53 1015.33 1015.14 1014.98 1015.10 1015.11 1015.68 1016.92 1018.83 1020.11 1019.57 1018.91 1018.37 1018.00 1018.57 1018.69 1018.86 1019.48 1019.60 1020.47 1020.79 1021.05 1021.09 1020.62 1018.67 1018.25 1017.75 1017.30 1016.81 1016.27 1016.58 1017.95 1018.77 1019.07 1018.74
1020.03 1019.93 1020.04 1019.87 1019.66 1018.83 1018.72 1018.60 1017.93 1017.15 1016.22 1015.80 1015.51 1015.38 1015.50 1015.24 1015.22 1015.45 1016.73 1019.60 1021.24 1020.74 1020.19 1019.74 1019.34 1019.64 1020.00 1019.79 1019.91 1020.38 1021.41 1022.19 1022.41 1022.31 1022.59 1022.20 1020.79 1019.48 1018.55 1017.96 1017.52 1017.16 1017.74 1018.52 1019.21 1019.96 1019.89
1019.65 1020.08 1019.92 1019.75 1019.46 1018.84 1018.80 1018.33 1017.65 1016.78 1016.04 1016.03 1015.92 1016.10 1016.01 1015.48 1015.37 1016.29 1018.07 1021.17 1021.42 1020.71 1020.22 1020.08 1020.58 1020.95 1021.42 1021.23 1021.08 1021.35 1022.40 1023.22 1023.20 1022.91 1022.99 1023.45 1022.71 1020.65 1019.34 1018.56 1018.21 1018.35 1018.66 1019.19 1020.24 1021.39 1021.04
1019.70 1020.00 1019.87 1019.40 1019.25 1019.18 1018.56 1018.04 1017.17 1016.38 1016.01 1015.82 1016.26 1016.61 1016.13 1015.59 1015.78 1017.69 1020.92 1021.69 1021.38 1020.90 1020.45 1020.92 1021.45 1021.95 1022.28 1022.46 1022.32 1022.66 1023.74 1023.82 1023.63 1023.39 1023.29 1023.65 1023.87 1021.87 1020.50 1019.94 1019.64 1019.31 1019.63 1020.43 1021.37 1022.02 1021.81
1019.78 1020.01 1019.35 1019.41 1019.40 1018.89 1018.35 1017.65 1016.78 1016.44 1016.09 1016.12 1016.85 1017.53 1016.30 1015.91 1017.75 1020.52 1022.14 1021.79 1021.33 1021.52 1021.17 1021.53 1021.98 1022.57 1023.00 1023.12 1023.28 1023.54 1024.25 1024.44 1023.99 1023.77 1024.04 1024.04 1024.15 1023.68 1022.18 1020.81 1020.45 1020.36 1021.00 1021.61 1022.33 1022.42 1021.86
1020.09 1019.79 1019.32 1019.47 1019.14 1018.64 1018.08 1017.26 1016.58 1016.36 1016.11 1016.60 1017.69 1017.92 1016.72 1016.59 1019.87 1022.12 1022.41 1022.40 1022.26 1022.18 1022.32 1022.42 1023.07 1023.34 1023.52 1023.89 1024.28 1024.38 1024.73 1024.84 1024.42 1024.34 1024.59 1024.45 1024.59 1024.31 1022.65 1021.87 1021.56 1021.64 1021.61 1022.02 1022.30 1022.09 1021.41
1020.01 1019.56 1019.49 1019.31 1018.92 1018.49 1017.63 1016.98 1016.38 1015.94 1015.89 1016.57 1018.15 1019.24 1019.18 1019.64 1021.15 1021.86 1022.84 1023.19 1022.99 1022.85 1023.17 1023.51 1024.08 1024.10 1024.38 1024.76 1024.96 1025.43 1025.56 1025.29 1025.04 1024.81 1024.50 1024.54 1025.07 1025.28 1024.99 1024.07 1023.68 1022.90 1022.10 1021.92 1021.61 1021.75 1021.06
1019.77 1019.64 1019.54 1019.16 1018.64 1018.40 1017.42 1016.58 1016.13 1015.60 1015.63 1016.30 1018.86 1021.22 1021.49 1022.85 1023.10 1022.85 1022.94 1023.54 1023.74 1023.73 1023.89 1024.32 1024.95 1025.40 1025.57 1025.74 1025.97 1026.51 1026.55 1026.07 1025.45 1025.30 1025.20 1025.47 1025.78 1025.47 1024.78 1024.00 1023.52 1023.08 1022.61 1021.63 1021.25 1020.76 1020.78
1019.77 1019.79 1019.50 1018.91 1018.74 1018.15 1017.22 1016.40 1015.88 1015.27 1015.45 1016.67 1019.25 1020.66 1022.04 1023.24 1023.23 1023.44 1023.93 1024.61 1024.53 1024.76 1024.92 1025.33 1025.73 1025.95 1025.98 1026.49 1027.08 1027.27 1027.32 1026.96 1026.83 1026.18 1026.09 1026.18 1026.10 1025.88 1024.68 1023.62 1023.09 1022.95 1022.56 1021.75 1021.43 1020.78 1020.61
1019.93 1019.69 1019.35 1019.02 1018.67 1018.13 1017.19 1016.35 1015.56 1015.05 1015.32 1017.43 1019.38 1019.78 1020.75 1023.94 1024.19 1024.34 1025.04 1025.04 1025.21 1025.31 1026.10 1026.08 1026.22 1026.25 1026.39 1026.74 1026.97 1027.06 1027.16 1027.16 1027.22 1027.44 1027.10 1026.93 1026.84 1026.19 1025.04 1024.14 1023.39 1023.39 1023.19 1022.69 1022.35 1021.82 1021.18
1019.95 1019.61 1019.41 1019.12 1018.67 1018.28 1017.16 1016.38 1015.66 1015.01 1015.02 1016.70 1018.84 1019.83 1021.89 1025.17 1024.78 1025.12 1025.32 1025.39 1025.76 1025.84 1026.16 1026.67 1026.61 1026.53 1026.72 1026.50 1026.65 1026.94 1027.26 1027.43 1027.45 1027.30 1027.42 1027.31 1027.08 1026.76 1025.81 1024.59 1024.49 1024.23 1023.86 1023.39 1023.00 1022.34 1021.88
1019.97 1019.64 1019.60 1019.21 1018.88 1018.27 1017.29 1016.69 1016.05 1015.33 1015.41 1016.87 1018.78 1019.77 1022.27 1025.23 1025.86 1026.00 1026.02 1026.39 1026.56 1026.55 1026.75 1027.05 1027.12 1027.26 1026.88 1026.83 1027.29 1027.77 1028.10 1027.95 1027.54 1027.26 1027.37 1027.51 1027.52 1027.38 1026.84 1025.90 1025.26 1024.49 1024.50 1024.61 1024.16 1023.28 1023.24
1019.89 1019.87 1019.80 1019.30 1019.13 1018.36 1017.61 1017.09 1016.50 1015.92 1016.30 1017.18 1019.44 1019.79 1021.39 1024.32 1027.22 1026.67 1026.80 1027.04 1027.53 1027.71 1027.74 1027.79 1027.49 1027.33 1027.31 1028.10 1028.69 1029.35 1029.41 1028.86 1028.47 1027.91 1027.60 1027.87 1027.97 1028.01 1027.32 1026.69 1026.10 1025.96 1025.25 1024.50 1024.22 1023.88 1023.65
1020.07 1020.12 1019.99 1019.55 1019.25 1018.73 1017.98 1017.52 1016.98 1016.71 1016.73 1017.42 1020.16 1020.19 1021.42 1025.21 1027.49 1027.04 1027.24 1027.74 1027.90 1028.38 1028.97 1029.00 1028.95 1028.59 1028.71 1029.71 1030.70 1031.27 1030.83 1030.07 1029.85 1029.47 1028.99 1028.67 1028.58 1028.55 1027.86 1027.01 1026.43 1026.46 1025.46 1024.15 1024.68 1025.95 1024.68
1020.34 1020.38 1020.13 1019.87 1019.60 1019.10 1018.47 1018.00 1017.54 1017.45 1017.42 1017.71 1021.08 1020.82 1021.45 1025.82 1027.97 1027.65 1027.68 1028.01 1028.27 1028.68 1029.65 1029.97 1030.17 1030.18 1030.70 1031.71 1032.50 1032.77 1032.19 1031.66 1031.23 1030.65 1030.25 1030.16 1029.74 1029.22 1028.51 1027.69 1027.21 1026.65 1025.60 1025.68 1026.29 1025.63 1025.14
1020.53 1020.51 1020.49 1020.18 1019.94 1019.76 1019.02 1018.59 1018.30 1018.11 1018.28 1018.34 1021.59 1021.55 1021.69 1024.46 1028.40 1028.36 1028.36 1028.33 1028.17 1028.48 1029.32 1030.36 1031.25 1031.68 1032.15 1032.91 1033.37 1033.36 1033.16 1032.68 1032.38 1031.66 1030.81 1030.74 1030.22 1029.91 1029.37 1028.12 1027.33 1026.99 1026.57 1026.14 1026.08 1025.92 1025.22
Thickness
5614 5613 5618 5621 5624 5630 5635 5641 5645 5650 5655 5659 5665 5671 5677 5683 5686 5690 5695 5700 5704 5708 5712 5711 5712 5713 5717 5715 5716 5737 5738 5742 5743 5738 5732 5725 5715 5708 5698 5701 5700 5692 5700 5703 5704 5698 5696
5611 5609 5612 5618 5619 5624 5630 5635 5641 5647 5651 5657 5663 5668 5674 5681 5687 5690 5693 5699 5704 5709 5711 5711 5710 5709 5713 5702 5731 5732 5733 5736 5734 5731 5727 5721 5715 5713 5701 5696 5689 5699 5695 5689 5688 5689 5688
5603 5608 5604 5613 5616 5619 5624 5630 5637 5644 5648 5652 5662 5666 5673 5679 5686 5692 5694 5699 5704 5708 5709 5712 5708 5709 5708 5705 5728 5730 5730 5728 5731 5727 5716 5721 5718 5706 5699 5687 5695 5694 5684 5681 5676 5676 5674
5594 5604 5602 5604 5614 5614 5620 5627 5633 5639 5646 5649 5659 5663 5671 5677 5683 5691 5697 5702 5704 5709 5710 5709 5711 5706 5700 5722 5724 5725 5728 5724 5728 5725 5718 5718 5713 5701 5692 5692 5681 5672 5666 5650 5667 5664 5670
5588 5595 5596 5600 5609 5610 5617 5622 5625 5636 5642 5647 5655 5661 5668 5677 5682 5689 5698 5703 5705 5708 5709 5705 5706 5704 5690 5716 5710 5717 5718 5711 5716 5717 5716 5714 5705 5684 5679 5663 5648 5645 5639 5646 5647 5656 5658
5584 5589 5591 5596 5603 5609 5612 5615 5621 5631 5639 5645 5654 5659 5664 5675 5681 5689 5696 5700 5703 5705 5706 5703 5702 5689 5694 5688 5701 5704 5713 5711 5706 5704 5697 5691 5672 5658 5651 5643 5624 5633 5632 5631 5631 5642 5637
5576 5585 5590 5590 5600 5605 5610 5613 5618 5627 5636 5646 5652 5657 5664 5672 5678 5685 5693 5696 5683 5681 5688 5681 5680 5678 5682 5692 5697 5693 5701 5700 5697 5686 5667 5669 5649 5642 5646 5648 5648 5641 5632 5628 5633 5638 5626
5573 5581 5589 5585 5595 5604 5607 5612 5619 5625 5634 5645 5652 5658 5663 5670 5674 5680 5681 5672 5667 5669 5667 5680 5678 5678 5682 5683 5672 5683 5688 5679 5671 5657 5662 5650 5643 5655 5652 5646 5638 5631 5618 5613 5621 5629 5626
5569 5578 5587 5582 5595 5603 5605 5611 5620 5628 5632 5641 5650 5658 5664 5670 5673 5674 5668 5664 5665 5667 5658 5664 5667 5670 5671 5675 5660 5658 5664 5659 5659 5650 5646 5642 5647 5650 5644 5632 5626 5622 5611 5608 5605 5617 5616
5570 5582 5575 5586 5594 5600 5605 5609 5619 5628 5632 5639 5651 5658 5663 5672 5667 5663 5661 5661 5661 5661 5629 5634 5650 5660 5666 5668 5652 5656 5657 5654 5650 5639 5643 5637 5638 5635 5628 5623 5620 5611 5618 5612 5608 5602 5580
5572 5578 5574 5586 5592 5598 5603 5610 5616 5626 5633 5639 5650 5657 5663 5664 5660 5656 5657 5657 5657 5655 5580 5632 5641 5662 5653 5646 5639 5641 5647 5650 5626 5628 5634 5619 5617 5614 5612 5607 5612 5608 5613 5608 5605 5592 5580
5567 5572 5579 5585 5589 5595 5604 5607 5617 5624 5632 5641 5652 5656 5658 5656 5655 5654 5654 5653 5651 5609 5568 5623 5633 5631 5631 5630 5628 5628 5626 5635 5627 5622 5617 5608 5617 5608 5602 5608 5605 5602 5600 5593 5582 5571 5542
5562 5574 5581 5582 5587 5597 5603 5609 5616 5622 5633 5645 5650 5653 5653 5651 5649 5651 5651 5645 5606 5573 5616 5610 5614 5622 5618 5612 5613 5610 5603 5599 5581 5587 5572 5584 5595 5595 5596 5590 5593 5582 5571 5534 5544 5534 5525
5565 5574 5577 5580 5587 5598 5603 5608 5613 5624 5635 5644 5647 5649 5650 5650 5649 5649 5644 5628 5577 5600 5603 5612 5612 5615 5602 5603 5603 5594 5591 5572 5575 5567 5558 5550 5568 5571 5573 5570 5566 5566 5565 5523 5522 5529 5539
5565 5572 5575 5580 5586 5597 5601 5604 5615 5625 5636 5642 5645 5646 5644 5646 5646 5645 5630 5565 5571 5598 5602 5600 5605 5595 5589 5595 5596 5588 5574 5565 5563 5556 5546 5520 5547 5561 5563 5562 5560 5559 5543 5546 5540 5524 5518
5566 5567 5574 5579 5585 5595 5598 5606 5616 5626 5636 5637 5639 5637 5637 5642 5644 5635 5603 5581 5595 5602 5603 5600 5590 5586 5574 5579 5583 5580 5567 5559 5554 5554 5545 5530 5504 5548 5550 5553 5550 5543 5544 5531 5509 5489 5472
5562 5566 5572 5581 5586 5588 5599 5607 5619 5629 5634 5636 5633 5629 5636 5641 5640 5617 5567 5590 5596 5598 5600 5590 5584 5576 5577 5571 5573 5570 5553 5552 5547 5545 5542 5530 5503 5524 5536 5534 5525 5527 5516 5516 5513 5495 5492
5556 5561 5574 5578 5580 5589 5598 5609 5621 5626 5631 5631 5622 5618 5635 5638 5607 5576 5576 5596 5598 5589 5591 5586 5581 5575 5571 5566 5565 5561 5547 5539 5538 5535 5527 5523 5502 5489 5516 5525 5525 5525 5517 5488 5485 5508 5513
5550 5560 5571 5573 5579 5590 5599 5611 5620 5624 5629 5625 5617 5614 5630 5631 5577 5568 5589 5587 5585 5583 5578 5580 5570 5570 5566 5561 5556 5552 5544 5536 5530 5526 5516 5513 5489 5482 5502 5512 5507 5507 5514 5513 5498 5502 5520
5547 5558 5563 5571 5580 5588 5601 5611 5619 5626 5629 5624 5611 5595 5605 5600 5585 5584 5579 5580 5578 5578 5570 5569 5562 5559 5554 5548 5544 5537 5527 5529 5522 5522 5521 5508 5492 5481 5461 5480 5481 5488 5509 5512 5519 5514 5523
5546 5554 5560 5569 5579 5586 5599 5612 5620 5626 5628 5624 5597 5581 5589 5580 5575 5576 5578 5578 5572 5568 5570 5559 5554 5544 5542 5530 5534 5521 5512 5512 5519 5515 5506 5494 5481 5486 5486 5494 5498 5504 5507 5517 5525 5530 5528
5543 5549 5557 5570 5576 5585 5599 5611 5619 5627 5628 5614 5597 5591 5576 5571 5581 5571 5560 5563 5565 5561 5558 5552 5544 5539 5535 5525 5520 5513 5504 5506 5503 5499 5493 5483 5479 5474 5488 5510 5515 5499 5510 5521 5527 5531 5527
5537 5547 5555 5564 5573 5582 5596 5608 5619 5626 5627 5608 5595 5596 5589 5559 5561 5560 5555 5560 5556 5552 5545 5544 5541 5530 5526 5525 5516 5508 5503 5499 5496 5485 5481 5476 5471 5486 5493 5505 5507 5513 5502 5513 5516 5521 5526
5533 5544 5551 5560 5571 5579 5594 5606 5615 5625 5627 5615 5599 5594 5575 5550 5557 5556 5559 5554 5549 5550 5542 5539 5532 5527 5529 5521 5515 5507 5497 5491 5484 5482 5477 5475 5472 5477 5486 5501 5508 5504 5504 5509 5508 5520 5519
5528 5540 5547 5556 5566 5576 5591 5600 5609 5619 5621 5612 5598 5593 5572 5542 5547 5551 5550 5543 5542 5540 5540 5533 5528 5524 5516 5518 5513 5509 5496 5497 5494 5490 5484 5471 5466 5464 5474 5491 5500 5506 5501 5495 5498 5515 5513
5526 5534 5541 5553 5560 5573 5585 5593 5603 5611 5611 5606 5591 5591 5579 5555 5531 5541 5536 5537 5524 5526 5525 5525 5522 5515 5513 5500 5496 5486 5464 5482 5479 5479 5477 5467 5458 5450 5475 5488 5490 5492 5488 5500 5506 5516 5513
5521 5528 5537 5547 5556 5566 5578 5586 5596 5601 5605 5602 5584 5587 5576 5540 5526 5535 5529 5524 5521 5511 5505 5505 5506 5501 5499 5482 5478 5449 5447 5465 5446 5452 5452 5450 5455 5462 5468 5480 5485 5479 5489 5509 5511 5501 5504
5515 5523 5533 5542 5550 5560 5570 5579 5588 5593 5596 5598 5573 5579 5573 5531 5520 5525 5524 5520 5516 5504 5487 5495 5488 5483 5475 5460 5446 5425 5424 5430 5420 5431 5434 5425 5438 5444 5458 5461 5475 5483 5494 5501 5491 5498 5507
5511 5519 5526 5536 5544 5551 5562 5571 5578 5584 5585 5589 5564 5569 5570 5547 5516 5517 5516 5515 5516 5512 5497 5484 5479 5473 5461 5438 5423 5417 5416 5395 5398 5394 5413 5412 5423 5432 5447 5458 5475 5480 5487 5494 5496 5497 5506